Location: Buchberg
(46.9333°N, 15.8500°E)
Time: 09:20:04
(UTC+00:00)

Lacrosse 5 - Pass Details

Date: 14 July 2020
Orbit: 717 x 720 km, 57.0° (Epoch: 04 August)

Event Time Altitude Azimuth Distance (km) Brightness Sun altitude
Exits shadow 00:10:41 18° 257° (WSW) 1,704 3.5 -19.7°
Maximum altitude 00:14:16 54° 330° (NNW) 877 2.5 -19.5°
Drops below altitude 10° 00:19:15 10° 48° (NE) 2,208 5.3 -19.3°
Sets 00:21:42 0° 53° (NE) 3,131 6.1 -19.1°
